Wind_Speed
92 88 80 71 65 60 56 55 53 52 49 49 52 52 53 55 58 61 64 73 78 84 91 100 107 110 113 113 116 114 107 101 96 97 97 90 80 79 79 81 70 70 68 66 64
95 89 83 74 69 64 58 56 53 54 53 50 52 56 55 56 59 63 70 74 78 83 90 100 105 110 113 113 118 117 110 100 96 97 99 91 86 82 81 83 74 72 71 70 68
98 90 84 75 71 65 62 56 53 53 54 54 50 55 57 58 59 67 73 76 81 83 91 97 103 110 113 115 115 115 109 104 104 101 101 95 94 88 84 84 77 75 76 73 69
100 91 83 73 70 66 62 58 53 50 48 48 48 46 49 54 66 72 74 77 82 84 89 94 100 108 111 112 112 115 116 110 108 107 103 101 96 95 89 84 81 75 77 74 72
101 97 90 74 67 65 62 59 56 46 33 36 41 42 45 53 67 73 74 77 83 84 85 92 98 106 109 112 113 115 115 114 117 111 107 104 101 94 93 88 83 80 78 77 75
104 103 95 83 70 66 66 62 59 48 32 24 29 36 41 54 60 70 73 78 82 84 85 92 99 104 109 113 112 116 118 121 119 113 110 107 103 95 91 89 86 82 80 79 77
108 108 101 90 76 70 67 64 61 52 39 28 19 27 35 48 61 70 73 80 82 84 86 92 99 104 109 113 116 119 124 123 120 117 113 110 108 97 90 91 89 85 84 81 82
112 111 105 96 82 75 71 67 63 54 42 34 21 19 29 41 57 66 72 81 83 83 87 92 98 103 110 112 118 120 125 124 124 119 119 114 104 98 95 91 88 86 85 84 83
116 112 107 99 88 79 75 72 66 59 43 36 23 11 21 35 52 62 69 78 83 80 86 92 97 101 106 112 118 121 123 123 126 122 119 115 107 105 103 96 91 88 87 86 85
114 114 108 100 92 83 78 74 70 62 47 41 29 13 13 26 45 57 65 73 79 79 86 93 96 98 102 109 113 114 119 122 124 123 119 116 111 109 106 99 93 93 89 86 85
113 112 107 100 94 87 80 77 71 65 51 43 33 18 6 20 35 52 60 68 76 80 83 93 91 90 97 107 114 117 120 121 123 123 122 119 115 112 108 102 98 93 92 90 87
113 111 107 102 95 90 83 79 73 68 57 47 36 22 7 14 28 43 54 62 70 78 83 84 85 93 98 106 114 116 119 118 123 124 122 123 117 116 112 104 102 97 93 93 88
112 111 106 101 95 92 85 81 76 68 62 49 34 24 13 2 20 34 47 53 64 76 84 71 83 88 95 101 111 116 119 119 121 121 118 120 120 117 110 105 102 99 96 92 92
112 110 102 101 95 91 83 80 76 68 61 51 37 27 15 8 8 24 39 47 56 71 76 73 81 86 93 99 108 115 116 114 114 114 116 119 117 116 114 109 105 104 100 94 89
109 107 102 100 96 91 84 78 73 68 60 52 42 31 18 11 4 15 32 39 51 62 69 70 76 82 88 97 102 115 111 111 111 112 111 112 114 114 115 111 105 105 103 99 93
105 108 102 99 95 90 84 76 72 68 60 54 46 35 22 14 7 10 24 36 48 56 62 69 73 79 84 90 97 108 114 113 109 104 103 104 106 110 110 107 111 109 106 103 100
101 105 101 98 98 91 85 76 71 66 60 53 46 39 25 16 11 6 14 20 39 45 54 60 68 72 78 84 88 94 109 111 101 94 93 101 103 99 107 109 109 110 110 107 103
99 102 101 96 95 92 85 79 71 63 59 50 46 39 29 15 11 7 7 12 25 36 48 45 53 62 68 75 84 89 93 98 93 97 105 103 89 92 98 100 104 107 109 110 108
100 101 100 94 91 91 84 77 70 63 57 50 42 38 30 17 8 8 9 8 15 17 17 30 51 58 63 67 71 76 82 82 82 91 104 103 93 95 94 93 95 101 108 111 112
99 100 100 93 88 87 84 76 70 62 54 49 42 36 29 22 5 11 13 15 19 25 25 28 35 46 53 58 61 65 67 67 73 83 98 110 107 109 108 102 97 98 101 105 111
98 101 104 97 92 84 84 77 68 61 52 45 39 33 28 21 14 5 16 21 24 28 29 31 34 38 43 48 54 55 55 54 58 67 83 91 100 123 115 111 113 108 101 99 101
94 99 103 101 93 83 81 78 68 61 52 41 36 31 26 20 16 10 4 17 22 24 27 30 31 33 40 46 51 53 55 51 56 61 64 72 82 93 105 115 123 122 116 113 103
91 96 101 101 101 82 80 72 66 60 52 43 34 27 23 19 12 7 3 5 14 19 20 24 25 29 35 38 40 42 50 55 55 55 59 65 73 80 86 90 94 103 109 114 115
94 95 99 99 103 86 80 70 63 56 52 44 34 27 20 15 13 9 2 5 10 16 18 21 22 25 27 32 36 41 45 49 51 52 54 59 67 71 74 77 81 86 92 94 97
91 93 96 96 100 92 80 73 62 54 48 43 34 26 21 14 11 8 7 6 9 13 17 21 24 27 28 31 35 37 41 44 47 49 49 55 60 64 67 69 74 77 81 85 87
90 88 97 100 94 95 81 72 62 52 44 40 34 25 22 16 12 8 7 7 10 13 16 20 24 26 28 32 34 37 39 40 42 44 48 52 56 59 62 65 67 71 75 80 83
89 90 93 101 94 93 85 74 63 52 43 36 32 24 22 17 14 10 8 7 8 12 15 18 21 26 29 32 35 36 39 41 41 42 41 46 52 54 57 60 63 65 67 71 75
Wind_Direction
355 350 345 342 338 333 328 320 311 302 290 277 270 260 250 240 232 228 223 222 221 217 213 211 210 211 213 212 212 213 211 212 214 220 218 213 214 217 218 222 221 219 219 223 226
356 352 348 343 340 336 332 324 313 302 294 282 267 259 249 240 232 225 223 220 221 216 213 211 209 209 213 212 211 213 212 211 214 221 222 216 212 217 219 223 220 221 222 222 224
357 353 350 345 340 339 335 329 318 308 298 287 274 258 248 239 230 224 222 219 219 216 214 212 209 208 211 211 211 212 212 211 213 219 223 220 214 212 218 222 221 221 222 223 223
357 354 352 348 343 341 338 333 327 318 300 286 275 260 246 236 227 224 219 218 217 217 214 212 208 209 210 212 211 211 212 212 214 217 222 221 220 214 213 219 224 222 223 225 225
356 356 354 353 348 345 343 340 335 328 296 281 272 257 237 228 225 222 217 216 217 215 214 212 210 209 210 210 212 210 212 213 215 215 220 221 218 220 216 215 220 223 224 224 226
356 357 356 354 354 351 350 347 342 336 322 296 274 258 237 224 225 221 217 216 215 213 211 211 209 209 209 209 211 210 212 213 215 216 219 221 219 215 220 219 217 220 224 225 226
356 358 357 357 356 355 355 354 349 346 338 327 297 256 236 222 218 217 214 214 213 213 210 210 209 208 209 208 210 210 212 213 215 217 219 220 220 215 217 222 221 218 223 225 226
355 357 356 357 358 358 359 0 355 353 348 341 318 263 236 217 215 213 213 211 210 210 210 210 209 207 207 209 210 211 213 214 215 216 219 220 221 218 217 219 226 225 223 226 227
353 357 357 358 359 360 1 3 1 358 355 353 337 285 236 219 213 215 211 211 210 206 210 211 210 208 207 209 210 212 214 214 217 216 219 220 221 220 217 219 223 227 227 227 230
351 354 357 358 360 1 2 6 3 3 360 3 355 329 232 218 213 214 210 210 209 205 208 212 211 209 207 209 211 213 215 215 217 218 219 220 220 223 220 218 223 224 226 230 232
350 356 358 0 1 1 2 6 7 4 7 8 4 358 269 208 210 210 209 210 207 204 208 211 211 209 207 209 210 212 215 215 217 220 220 221 221 223 221 219 222 225 225 228 232
349 353 358 360 1 3 2 5 9 5 11 11 8 9 352 202 202 208 206 209 207 204 209 210 210 209 209 208 210 214 216 217 219 220 220 221 223 224 222 220 222 223 227 227 231
349 353 356 359 2 5 3 4 8 6 11 11 10 11 29 218 197 205 207 209 208 205 211 207 211 211 209 210 212 215 217 218 220 222 222 223 224 226 226 224 224 226 227 228 229
349 353 357 358 3 5 5 3 7 6 13 12 13 19 30 55 189 196 200 207 208 207 211 205 211 211 212 211 212 215 220 221 221 223 224 224 225 226 227 228 226 227 229 230 232
349 353 357 357 2 4 6 3 6 6 11 14 16 22 29 60 126 194 196 203 208 210 212 206 209 214 214 213 214 214 221 223 223 224 225 226 225 228 228 228 231 232 231 231 233
349 351 356 356 0 3 5 5 3 7 6 15 19 19 29 52 80 172 195 198 207 211 213 209 210 214 216 218 216 216 219 224 227 227 227 228 229 230 230 230 231 233 233 233 234
351 349 355 357 356 0 3 5 3 6 6 10 19 19 24 50 74 120 201 203 210 216 214 212 210 212 217 220 223 221 220 223 230 233 230 230 231 232 232 233 233 235 236 235 236
356 352 353 358 356 356 1 2 2 3 5 7 16 22 16 44 74 109 183 229 224 222 229 219 215 216 220 222 223 224 226 227 230 233 234 234 233 235 236 235 235 238 239 240 238
359 355 356 357 357 355 359 1 1 1 4 3 11 21 19 20 65 107 144 213 230 239 235 216 216 218 219 223 226 229 231 231 230 233 233 237 240 240 240 238 236 238 239 241 243
360 356 358 354 360 355 355 358 358 359 1 1 4 13 19 21 28 134 159 189 220 233 233 233 226 229 225 223 225 229 232 232 233 231 233 235 236 238 239 244 243 240 239 240 242
0 1 357 355 357 356 355 355 356 353 358 0 359 5 13 22 24 161 170 177 190 204 215 221 224 223 228 233 231 231 231 228 227 228 230 230 233 232 235 238 242 247 246 243 242
359 2 358 355 354 355 355 351 353 351 351 358 356 356 5 13 16 13 212 190 185 193 197 205 210 213 220 226 229 233 232 230 228 228 225 227 230 231 234 237 238 243 246 249 248
358 360 360 357 354 354 351 352 350 351 346 350 356 354 357 2 9 13 317 222 208 201 201 203 203 203 207 212 218 221 225 226 226 226 224 223 227 229 231 233 235 237 241 245 247
356 357 358 356 349 352 350 349 349 349 345 343 348 351 349 356 354 345 307 231 216 210 204 207 210 210 212 214 215 219 223 224 224 225 225 226 227 230 232 232 234 237 239 242 244
353 355 358 354 350 347 349 348 346 347 344 339 342 343 342 341 351 341 305 261 232 222 214 212 211 210 213 213 213 217 220 222 223 225 223 225 228 230 232 232 232 235 238 241 244
353 356 359 356 351 345 346 347 344 342 342 338 337 336 333 328 330 329 314 271 240 228 225 219 217 215 214 216 216 218 222 223 224 224 225 225 227 229 231 234 235 235 236 238 241
354 355 358 356 351 348 343 342 342 339 337 336 333 330 322 316 312 308 299 284 256 241 234 232 228 224 222 222 221 222 224 226 226 227 227 228 228 229 230 232 234 235 237 239 242
Height
10635 10615 10600 10586 10572 10558 10545 10532 10520 10510 10508 10502 10497 10499 10502 10506 10512 10521 10527 10530 10537 10552 10564 10575 10596 10614 10627 10644 10661 10676 10697 10714 10728 10726 10733 10753 10773 10780 10784 10790 10811 10818 10824 10833 10840
10626 10606 10588 10571 10558 10544 10529 10516 10503 10490 10481 10479 10477 10474 10479 10485 10494 10502 10504 10511 10521 10535 10546 10557 10577 10596 10612 10626 10644 10659 10684 10711 10722 10723 10724 10750 10761 10772 10779 10782 10802 10811 10816 10823 10831
10619 10599 10581 10561 10546 10530 10514 10502 10487 10471 10459 10450 10451 10450 10456 10466 10475 10479 10483 10492 10500 10514 10527 10541 10562 10579 10594 10611 10634 10654 10681 10697 10702 10705 10713 10734 10746 10756 10767 10775 10791 10800 10805 10814 10824
10611 10593 10575 10556 10534 10518 10501 10485 10470 10455 10438 10427 10424 10429 10434 10443 10447 10450 10465 10478 10486 10497 10514 10529 10551 10568 10585 10609 10627 10641 10655 10677 10687 10689 10698 10717 10732 10743 10755 10767 10779 10792 10797 10807 10816
10602 10585 10567 10546 10529 10508 10489 10470 10453 10440 10426 10412 10404 10407 10414 10420 10420 10432 10447 10461 10471 10485 10506 10522 10541 10556 10576 10592 10607 10627 10642 10655 10660 10679 10687 10696 10715 10736 10746 10755 10767 10780 10789 10798 10807
10589 10572 10555 10533 10516 10498 10474 10456 10438 10423 10411 10400 10392 10389 10395 10398 10408 10416 10434 10444 10456 10472 10489 10508 10526 10543 10558 10576 10597 10612 10621 10633 10651 10668 10677 10687 10704 10723 10741 10748 10758 10768 10777 10787 10796
10579 10561 10541 10523 10505 10487 10466 10445 10426 10409 10396 10385 10379 10374 10376 10382 10390 10396 10414 10425 10442 10459 10477 10493 10506 10528 10547 10563 10578 10592 10600 10618 10640 10650 10662 10676 10685 10716 10728 10738 10747 10757 10764 10774 10782
10572 10554 10533 10515 10496 10478 10459 10438 10420 10402 10388 10375 10366 10362 10363 10369 10374 10384 10397 10410 10426 10446 10466 10477 10491 10509 10531 10549 10562 10575 10587 10609 10623 10639 10650 10665 10685 10704 10715 10727 10741 10751 10756 10762 10770
10565 10548 10528 10507 10491 10472 10453 10431 10414 10395 10382 10369 10358 10353 10355 10360 10365 10373 10387 10399 10415 10440 10455 10465 10479 10499 10520 10537 10550 10561 10579 10603 10610 10628 10639 10658 10671 10680 10693 10711 10725 10740 10748 10752 10759
10561 10545 10524 10501 10484 10467 10449 10429 10409 10394 10378 10365 10355 10349 10347 10352 10359 10366 10379 10392 10410 10431 10442 10453 10469 10490 10513 10530 10552 10569 10579 10592 10602 10618 10632 10645 10659 10664 10683 10703 10711 10720 10734 10743 10750
10558 10542 10522 10499 10480 10465 10447 10428 10410 10394 10377 10365 10357 10349 10346 10348 10355 10363 10376 10388 10404 10422 10435 10443 10465 10497 10517 10523 10538 10549 10558 10577 10588 10602 10618 10631 10640 10651 10669 10690 10698 10709 10721 10731 10738
10555 10538 10522 10502 10477 10463 10445 10429 10410 10395 10379 10368 10359 10353 10348 10349 10354 10362 10374 10386 10402 10418 10426 10443 10467 10478 10496 10508 10524 10537 10549 10567 10574 10585 10602 10613 10631 10638 10651 10677 10686 10696 10707 10720 10732
10553 10537 10518 10503 10481 10463 10445 10430 10413 10399 10382 10373 10364 10358 10352 10353 10356 10362 10373 10384 10400 10415 10418 10447 10460 10474 10490 10503 10515 10528 10537 10552 10564 10577 10594 10607 10621 10634 10656 10669 10678 10687 10695 10707 10719
10550 10537 10519 10503 10484 10468 10453 10434 10419 10406 10391 10381 10371 10364 10359 10358 10360 10365 10375 10386 10401 10411 10420 10441 10451 10467 10481 10494 10507 10519 10527 10542 10558 10570 10584 10590 10612 10626 10639 10653 10667 10673 10684 10697 10710
10550 10538 10523 10503 10487 10471 10457 10440 10429 10414 10400 10388 10377 10370 10366 10364 10367 10371 10376 10388 10402 10413 10421 10440 10450 10463 10475 10485 10497 10509 10520 10533 10545 10556 10568 10585 10601 10618 10625 10643 10661 10666 10673 10685 10696
10554 10537 10522 10505 10489 10475 10462 10448 10434 10421 10409 10395 10385 10379 10374 10371 10373 10377 10382 10390 10399 10407 10419 10433 10446 10455 10468 10479 10490 10501 10512 10521 10534 10550 10565 10580 10591 10604 10619 10637 10637 10648 10660 10671 10680
10559 10536 10522 10505 10492 10477 10464 10453 10442 10428 10415 10403 10393 10386 10382 10379 10378 10382 10387 10394 10401 10407 10414 10427 10441 10453 10462 10476 10486 10497 10507 10516 10530 10544 10564 10566 10575 10603 10602 10616 10628 10637 10644 10656 10668
10561 10539 10523 10510 10492 10479 10468 10454 10445 10434 10424 10415 10402 10395 10391 10388 10386 10388 10393 10396 10404 10410 10416 10430 10443 10453 10462 10470 10479 10490 10501 10515 10526 10540 10542 10546 10575 10591 10591 10602 10614 10623 10628 10638 10650
10563 10541 10526 10514 10496 10479 10469 10458 10448 10438 10429 10420 10411 10403 10398 10394 10392 10392 10397 10401 10406 10410 10416 10428 10437 10447 10455 10463 10473 10485 10496 10508 10522 10531 10535 10551 10568 10574 10576 10587 10597 10605 10610 10618 10626
10565 10542 10527 10515 10503 10485 10470 10462 10448 10443 10433 10423 10415 10409 10405 10401 10398 10396 10399 10402 10406 10411 10416 10423 10433 10440 10449 10458 10467 10476 10484 10501 10513 10523 10532 10545 10552 10562 10563 10570 10572 10579 10588 10598 10607
10568 10547 10527 10511 10504 10490 10475 10463 10455 10443 10437 10429 10423 10415 10407 10405 10403 10402 10402 10402 10405 10408 10412 10417 10423 10432 10442 10453 10460 10469 10477 10487 10498 10507 10513 10524 10533 10542 10541 10547 10555 10558 10569 10584 10592
10570 10551 10530 10513 10499 10490 10477 10462 10454 10447 10438 10433 10424 10417 10412 10406 10403 10403 10403 10404 10405 10407 10410 10414 10418 10424 10430 10437 10445 10454 10464 10474 10479 10484 10496 10505 10512 10516 10523 10534 10543 10548 10556 10562 10570
10568 10553 10531 10514 10497 10488 10476 10464 10454 10446 10438 10432 10428 10422 10414 10408 10406 10405 10404 10404 10404 10404 10406 10409 10413 10418 10423 10429 10437 10445 10448 10454 10463 10471 10481 10490 10493 10499 10507 10516 10524 10532 10538 10545 10555
10567 10553 10532 10514 10490 10486 10473 10463 10453 10443 10437 10430 10426 10422 10418 10412 10406 10403 10405 10404 10404 10404 10405 10406 10410 10414 10419 10424 10431 10435 10441 10448 10455 10463 10471 10478 10481 10487 10494 10503 10511 10516 10521 10527 10537
10567 10551 10530 10512 10491 10477 10470 10460 10450 10441 10434 10428 10423 10419 10416 10412 10408 10404 10402 10402 10403 10404 10405 10406 10408 10411 10415 10419 10424 10428 10432 10438 10445 10452 10460 10464 10468 10476 10481 10487 10494 10500 10507 10514 10521
10566 10550 10528 10511 10491 10473 10463 10455 10447 10438 10430 10425 10419 10415 10412 10409 10407 10405 10402 10401 10401 10402 10402 10404 10406 10408 10411 10414 10417 10421 10425 10430 10437 10443 10447 10452 10455 10460 10466 10473 10480 10487 10493 10499 10505
10562 10548 10529 10510 10490 10472 10458 10446 10438 10432 10427 10420 10416 10411 10408 10406 10403 10401 10400 10399 10399 10399 10399 10401 10403 10405 10407 10410 10414 10416 10420 10424 10429 10433 10439 10441 10444 10450 10455 10461 10467 10474 10481 10486 10492